DMSP 5D-2 F14 DEB

基本信息
目录编号:
62936
目录名称:
DMSP 5D-2 F14 DEB
国际标识:
1997-012G
轨道中心:
EARTH
物体状态:
已陨落(2026-03-20)
发射日期:
1997-04-04 UTC
轨道信息
数据来源: 国际轨道数据
星历时间: 2026-03-19T07:14:41+0800
半长轴: 6752.35km
偏心率: 0.0027684
轨道倾角: 99.198°
近地点辐角: 259.743°
升交点赤经: 163.464°
平近点角: 100.070°
近地点: 355.519km
远地点: 392.907km
周期: 92.033分钟
每日圈数: 15.646614
详细信息
发射场:
AFWTR
轨道高度:
LEO
数据来源:
AOE Integration Group
参考系:
TEME
时间系统:
UTC
历元类型:
SGP4
2D轨道图
3D轨道图
轨道高度分析图
轨道倾角分析图
轨道综合分析图
查看轨道综合分析图